Regional Weather Roundup
Issued by NWS State College, PA

Home | Current Version | Previous Version | Text Only | Print | Product List | Glossary On
Versions: 1 2 3 4 5 6 7 8 9 10 11 12 13 14 15 16 17 18 19 20 21 22 23 24 25 26 27 28 29 30 31 32 33 34 35 36 37 38 39 40 41 42 43 44 45 46 47 48 49 50
000
ASUS41 KCTP 032210
RWRCTP

REGIONAL WEATHER ROUNDUP
NATIONAL WEATHER SERVICE STATE COLLEGE PA
600 PM EDT FRI JUL 03 2015

Note: "fair" indicates few or no clouds below 12,000 feet with no
significant weather and/or obstructions to visibility.

* = STATION THAT DOES NOT REPORT PRECIPITATION /E.G. RAIN...SNOW...ETC/
    THUNDER OR FOG.

PAZ002>004-007>009-013>016-020>023-029>032-032300-
WESTERN PENNSYLVANIA

CITY           SKY/WX    TMP DP  RH WIND       PRES   REMARKS
ERIE           MOSUNNY   70  48  45 NE12      29.93F
MEADVILLE      PTSUNNY   76  54  46 S6        29.93S
FRANKLIN*      PTSUNNY   75  55  50 CALM      29.95R
NEW CASTLE     FAIR      77  58  51 CALM      29.91F
BEAVER COUNTY  CLOUDY    75  59  57 CALM      29.91F
BUTLER*        CLOUDY    75  61  60 SE7       29.93S
PITTSBURGH INT LGT RAIN  77  58  51 CALM      29.90S
PITTSBURGH     CLOUDY    75  57  53 S8        29.90S
INDIANA*       SUNNY     75  63  64 SE6       29.96F
LATROBE        MOSUNNY   73  64  73 SE7       29.92F
WASHINGTON CO* NOT AVBL
$$

PAZ004>006-010>012-017>019-024>028-033>037-041-042-045-046-049>053-032300-
CENTRAL PENNSYLVANIA

CITY           SKY/WX    TMP DP  RH WIND       PRES   REMARKS
BRADFORD       PTSUNNY   73  55  53 VRB5      29.96F
DUBOIS         CLOUDY    75  57  53 SE7       29.94F
CLEARFIELD     CLOUDY    75  60  59 VRB3      29.95F
JOHNSTOWN      CLOUDY    69  58  67 SE7       29.97F
ALTOONA        CLOUDY    72  61  68 SE8       29.97S
STATE COLLEGE  MOSUNNY   73  61  64 S6        29.96S
WILLIAMSPORT   PTSUNNY   78  59  51 SE10      29.92F
SELINSGROVE    CLOUDY    78  62  57 S7        29.94F
FT INDIANTOWN  CLOUDY    77  62  60 S5        29.95F
CAPITAL CITY   CLOUDY    78  63  59 S7        29.94F
HARRISBURG     CLOUDY    77  65  66 SE3       29.93F
YORK           CLOUDY    76  63  64 S7        29.95F
$$

PAZ038>040-043-044-047-048-054-055-060>062-067>071-032300-
EASTERN PENNSYLVANIA

CITY           SKY/WX    TMP DP  RH WIND       PRES   REMARKS
SCRANTON       PTSUNNY   78  55  44 SE3       29.95F
MOUNT POCONO   PTSUNNY   73  55  53 S9        30.00F
ALLENTOWN      CLOUDY    79  58  48 S8        29.95F
QUAKERTOWN*    CLOUDY    77  61  57 CALM      29.97F
READING        CLOUDY    78  61  55 S7        29.94F
LANCASTER      CLOUDY    76  63  64 S9        29.95S
COATESVILLE    MOCLDY    75  64  69 CALM      29.98S
POTTSTOWN      CLOUDY    78  61  55 SW5       29.97F
BLUE BELL      PTSUNNY   81  61  50 CALM      29.95S
DOYLESTOWN     CLOUDY    77  58  51 CALM      29.95F
WILLOW GROVE   NOT AVBL
NORTH PHILA    PTSUNNY   80  58  46 SE7       29.96F
PHILADELPHIA   CLOUDY    81  62  52 S7        29.95S
$$



USA.gov is the U.S. government's official web portal to all federal, state and local government web resources and services.